Time,TemperatureF,DewpointF,PressureIn,WindDirection,WindDirectionDegrees,WindSpeedMPH,WindSpeedGustMPH,Humidity,HourlyPrecipIn,Conditions,Clouds,dailyrainin,SoftwareType,DateUTC
2013-11-20 00:01:00,59.0,45.2,29.97,NNW,348,0.0,0.0,60,0.00,,---,0.00,VWS V14.01,2013-11-20 05:01:00,
2013-11-20 00:06:00,59.0,45.2,29.97,SSW,197,0.0,0.0,60,0.00,,---,0.00,VWS V14.01,2013-11-20 05:06:00,
2013-11-20 00:11:00,59.0,45.2,29.97,WNW,289,0.0,0.0,60,0.00,,---,0.00,VWS V14.01,2013-11-20 05:11:00,
2013-11-20 00:16:00,59.0,45.2,29.97,NE,51,0.0,0.0,60,0.00,,---,0.00,VWS V14.01,2013-11-20 05:16:00,
2013-11-20 00:21:00,59.0,45.2,29.97,SW,232,0.0,0.0,60,0.00,,---,0.00,VWS V14.01,2013-11-20 05:21:00,
2013-11-20 00:26:00,59.0,45.2,29.97,NE,52,0.0,0.0,60,0.00,,---,0.00,VWS V14.01,2013-11-20 05:26:00,
2013-11-20 00:31:00,59.0,45.2,29.97,NNE,30,0.0,0.0,60,0.00,,---,0.00,VWS V14.01,2013-11-20 05:31:00,
2013-11-20 00:36:00,59.0,45.6,29.97,North,8,0.0,3.1,61,0.00,,---,0.00,VWS V14.01,2013-11-20 05:36:00,
2013-11-20 00:41:00,59.0,45.6,29.97,ENE,62,0.0,0.0,61,0.00,,---,0.00,VWS V14.01,2013-11-20 05:41:00,
2013-11-20 00:46:00,59.0,45.6,29.97,North,0,0.0,0.0,61,0.00,,---,0.00,VWS V14.01,2013-11-20 05:46:00,
2013-11-20 00:51:00,59.0,45.6,29.97,NNE,33,3.1,3.1,61,0.00,,---,0.00,VWS V14.01,2013-11-20 05:51:00,
2013-11-20 00:56:00,59.0,45.2,29.97,NNE,33,0.0,3.1,60,0.00,,---,0.00,VWS V14.01,2013-11-20 05:56:00,
2013-11-20 01:01:00,59.0,45.2,29.97,NE,41,0.0,0.0,60,0.00,,---,0.00,VWS V14.01,2013-11-20 06:01:00,
2013-11-20 01:06:00,58.8,45.4,29.97,NNE,28,0.0,0.0,61,0.00,,---,0.00,VWS V14.01,2013-11-20 06:06:00,
2013-11-20 01:11:00,58.8,45.4,29.97,ENE,77,2.7,2.7,61,0.00,,---,0.00,VWS V14.01,2013-11-20 06:11:00,
2013-11-20 01:16:00,58.6,45.2,29.97,East,95,0.0,0.0,61,0.00,,---,0.00,VWS V14.01,2013-11-20 06:16:00,
2013-11-20 01:21:00,58.5,45.1,29.97,East,92,0.0,0.0,61,0.00,,---,0.00,VWS V14.01,2013-11-20 06:21:00,
2013-11-20 01:26:00,58.5,45.1,29.97,East,92,0.0,0.0,61,0.00,,---,0.00,VWS V14.01,2013-11-20 06:26:00,
2013-11-20 01:31:00,58.3,44.9,29.97,NNW,331,0.0,0.0,61,0.00,,---,0.00,VWS V14.01,2013-11-20 06:31:00,
2013-11-20 01:36:00,58.3,44.9,29.97,North,3,0.0,0.0,61,0.00,,---,0.00,VWS V14.01,2013-11-20 06:36:00,
2013-11-20 01:41:00,58.1,44.7,29.97,SSW,207,0.0,0.0,61,0.00,,---,0.00,VWS V14.01,2013-11-20 06:41:00,
2013-11-20 01:46:00,58.1,44.7,29.97,North,353,0.0,0.0,61,0.00,,---,0.00,VWS V14.01,2013-11-20 06:46:00,
2013-11-20 01:51:00,57.9,44.6,29.97,NNW,343,0.0,0.0,61,0.00,,---,0.00,VWS V14.01,2013-11-20 06:51:00,
2013-11-20 01:56:00,57.9,45.0,29.97,North,7,0.0,2.2,62,0.00,,---,0.00,VWS V14.01,2013-11-20 06:56:00,
2013-11-20 02:01:00,57.9,44.6,29.97,North,7,0.0,0.0,61,0.00,,---,0.00,VWS V14.01,2013-11-20 07:01:00,
2013-11-20 02:06:00,57.9,44.6,29.97,North,7,0.0,0.0,61,0.00,,---,0.00,VWS V14.01,2013-11-20 07:06:00,
2013-11-20 02:11:00,57.9,44.6,29.97,North,7,0.0,0.0,61,0.00,,---,0.00,VWS V14.01,2013-11-20 07:11:00,
2013-11-20 02:16:00,57.9,45.0,29.97,North,0,0.0,0.0,62,0.00,,---,0.00,VWS V14.01,2013-11-20 07:16:00,
2013-11-20 02:21:00,57.9,45.0,29.94,North,0,0.0,0.0,62,0.00,,---,0.00,VWS V14.01,2013-11-20 07:21:00,
2013-11-20 02:26:00,57.9,45.0,29.94,North,0,0.0,0.0,62,0.00,,---,0.00,VWS V14.01,2013-11-20 07:26:00,
2013-11-20 02:31:00,57.9,45.0,29.94,North,0,0.0,0.0,62,0.00,,---,0.00,VWS V14.01,2013-11-20 07:31:00,
2013-11-20 02:36:00,57.9,45.0,29.94,North,0,0.0,0.0,62,0.00,,---,0.00,VWS V14.01,2013-11-20 07:36:00,
2013-11-20 02:41:00,57.9,45.0,29.94,WSW,253,0.0,0.0,62,0.00,,---,0.00,VWS V14.01,2013-11-20 07:41:00,
2013-11-20 02:46:00,57.7,44.8,29.94,WSW,253,0.0,0.0,62,0.00,,---,0.00,VWS V14.01,2013-11-20 07:46:00,
2013-11-20 02:51:00,57.7,44.8,29.94,WSW,253,0.0,0.0,62,0.00,,---,0.00,VWS V14.01,2013-11-20 07:51:00,
2013-11-20 02:56:00,57.7,44.8,29.94,WSW,253,0.0,0.0,62,0.00,,---,0.00,VWS V14.01,2013-11-20 07:56:00,
2013-11-20 03:01:00,57.7,45.2,29.94,WSW,253,0.0,0.0,63,0.00,,---,0.00,VWS V14.01,2013-11-20 08:01:00,
2013-11-20 03:06:00,57.9,45.4,29.94,WSW,253,0.0,0.0,63,0.00,,---,0.00,VWS V14.01,2013-11-20 08:06:00,
2013-11-20 03:11:00,57.9,45.4,29.94,North,349,0.0,0.0,63,0.00,,---,0.00,VWS V14.01,2013-11-20 08:11:00,
2013-11-20 03:16:00,57.9,45.4,29.94,North,349,0.0,0.0,63,0.00,,---,0.00,VWS V14.01,2013-11-20 08:16:00,
2013-11-20 03:21:00,57.9,45.4,29.94,North,349,0.0,0.0,63,0.00,,---,0.00,VWS V14.01,2013-11-20 08:21:00,
2013-11-20 03:26:00,57.9,45.4,29.94,West,276,0.0,0.0,63,0.00,,---,0.00,VWS V14.01,2013-11-20 08:26:00,
2013-11-20 03:31:00,57.9,45.8,29.94,West,276,0.0,0.0,64,0.00,,---,0.00,VWS V14.01,2013-11-20 08:31:00,
2013-11-20 03:36:00,58.1,46.0,29.94,West,276,0.0,0.0,64,0.00,,---,0.00,VWS V14.01,2013-11-20 08:36:00,
2013-11-20 03:41:00,58.3,46.2,29.94,West,276,0.0,0.0,64,0.00,,---,0.00,VWS V14.01,2013-11-20 08:41:00,
2013-11-20 03:46:00,58.3,46.2,29.94,NNE,18,0.0,0.0,64,0.00,,---,0.00,VWS V14.01,2013-11-20 08:46:00,
2013-11-20 03:51:00,58.5,46.3,29.94,NNE,18,0.0,0.0,64,0.00,,---,0.00,VWS V14.01,2013-11-20 08:51:00,
2013-11-20 03:56:00,58.5,46.8,29.94,NNE,18,0.0,0.0,65,0.00,,---,0.00,VWS V14.01,2013-11-20 08:56:00,
2013-11-20 04:01:00,58.6,46.9,29.94,North,0,0.0,0.0,65,0.00,,---,0.00,VWS V14.01,2013-11-20 09:01:00,
2013-11-20 04:06:00,58.6,46.9,29.94,WNW,296,0.0,0.0,65,0.00,,---,0.00,VWS V14.01,2013-11-20 09:06:00,
2013-11-20 04:11:00,58.8,47.1,29.94,WNW,296,0.0,0.0,65,0.00,,---,0.00,VWS V14.01,2013-11-20 09:11:00,
2013-11-20 04:17:00,58.8,47.1,29.94,North,353,0.0,0.0,65,0.00,,---,0.00,VWS V14.01,2013-11-20 09:17:00,
2013-11-20 04:21:00,59.0,46.8,29.94,North,353,0.0,0.0,64,0.00,,---,0.00,VWS V14.01,2013-11-20 09:21:00,
2013-11-20 04:26:00,59.0,46.8,29.94,East,81,0.0,0.0,64,0.00,,---,0.00,VWS V14.01,2013-11-20 09:26:00,
2013-11-20 04:32:00,59.2,47.4,29.94,North,10,0.0,0.0,65,0.00,,---,0.00,VWS V14.01,2013-11-20 09:32:00,
2013-11-20 04:37:00,59.2,47.4,29.94,WNW,303,0.0,0.0,65,0.00,,---,0.00,VWS V14.01,2013-11-20 09:37:00,
2013-11-20 04:42:00,59.4,47.6,29.94,WNW,303,0.0,0.0,65,0.00,,---,0.00,VWS V14.01,2013-11-20 09:42:00,
2013-11-20 04:47:00,59.4,47.6,29.94,WNW,303,0.0,0.0,65,0.00,,---,0.00,VWS V14.01,2013-11-20 09:47:00,
2013-11-20 04:52:00,59.4,47.6,29.94,SW,228,0.0,0.0,65,0.00,,---,0.00,VWS V14.01,2013-11-20 09:52:00,
2013-11-20 04:57:00,59.4,47.6,29.94,North,357,0.0,0.0,65,0.00,,---,0.00,VWS V14.01,2013-11-20 09:57:00,
2013-11-20 05:02:00,59.5,47.8,29.94,North,357,0.0,0.0,65,0.00,,---,0.00,VWS V14.01,2013-11-20 10:02:00,
2013-11-20 05:07:00,59.5,47.8,29.94,North,357,0.0,0.0,65,0.00,,---,0.00,VWS V14.01,2013-11-20 10:07:00,
2013-11-20 05:12:00,59.5,47.8,29.94,North,0,0.0,0.0,65,0.00,,---,0.00,VWS V14.01,2013-11-20 10:12:00,
2013-11-20 05:17:00,59.5,47.8,29.94,North,0,0.0,0.0,65,0.00,,---,0.00,VWS V14.01,2013-11-20 10:17:00,
2013-11-20 05:22:00,59.7,48.0,29.94,North,0,0.0,0.0,65,0.00,,---,0.00,VWS V14.01,2013-11-20 10:22:00,
2013-11-20 05:27:00,59.7,48.0,29.94,North,0,0.0,0.0,65,0.00,,---,0.00,VWS V14.01,2013-11-20 10:27:00,
2013-11-20 05:32:00,59.7,48.0,29.94,WNW,301,0.0,0.0,65,0.00,,---,0.00,VWS V14.01,2013-11-20 10:32:00,
2013-11-20 05:37:00,59.9,48.1,29.94,NE,36,0.0,0.0,65,0.00,,---,0.00,VWS V14.01,2013-11-20 10:37:00,
2013-11-20 05:42:00,59.9,48.1,29.94,NE,37,0.0,0.0,65,0.00,,---,0.00,VWS V14.01,2013-11-20 10:42:00,
2013-11-20 05:47:00,60.1,48.3,29.94,NE,37,0.0,0.0,65,0.00,,---,0.00,VWS V14.01,2013-11-20 10:47:00,
2013-11-20 05:52:00,60.1,48.3,29.94,NNW,340,0.0,0.0,65,0.00,,---,0.00,VWS V14.01,2013-11-20 10:52:00,
2013-11-20 05:57:00,60.1,48.3,29.94,NNW,340,0.0,0.0,65,0.00,,---,0.00,VWS V14.01,2013-11-20 10:57:00,
2013-11-20 06:02:00,60.3,48.9,29.94,North,349,0.0,0.0,66,0.00,,---,0.00,VWS V14.01,2013-11-20 11:02:00,
2013-11-20 06:07:00,60.3,48.9,29.94,North,349,0.0,0.0,66,0.00,,---,0.00,VWS V14.01,2013-11-20 11:07:00,
2013-11-20 06:12:00,60.4,49.0,29.94,NNW,332,0.0,0.0,66,0.00,,---,0.00,VWS V14.01,2013-11-20 11:12:00,
2013-11-20 06:17:00,60.4,49.0,29.94,NNW,332,0.0,0.0,66,0.00,,---,0.00,VWS V14.01,2013-11-20 11:17:00,
2013-11-20 06:22:00,60.6,49.2,29.97,NNW,337,0.0,0.0,66,0.00,,---,0.00,VWS V14.01,2013-11-20 11:22:00,
2013-11-20 06:27:00,60.6,49.2,29.97,NNW,337,0.0,0.0,66,0.00,,---,0.00,VWS V14.01,2013-11-20 11:27:00,
2013-11-20 06:32:00,60.8,49.4,29.97,NNW,337,0.0,0.0,66,0.00,,---,0.00,VWS V14.01,2013-11-20 11:32:00,
2013-11-20 06:37:00,60.8,49.4,29.97,NNW,337,0.0,0.0,66,0.00,,---,0.00,VWS V14.01,2013-11-20 11:37:00,
2013-11-20 06:42:00,61.0,49.5,29.97,NNW,337,0.0,0.0,66,0.00,,---,0.00,VWS V14.01,2013-11-20 11:42:00,
2013-11-20 06:47:00,61.0,49.5,29.97,NNW,337,0.0,0.0,66,0.00,,---,0.00,VWS V14.01,2013-11-20 11:47:00,
2013-11-20 06:52:00,61.0,49.5,29.97,NNW,337,0.0,0.0,66,0.00,,---,0.00,VWS V14.01,2013-11-20 11:52:00,
2013-11-20 06:57:00,61.0,49.5,29.97,NNW,337,0.0,0.0,66,0.00,,---,0.00,VWS V14.01,2013-11-20 11:57:00,
2013-11-20 07:02:00,61.0,49.5,29.97,North,0,0.0,0.0,66,0.00,,---,0.00,VWS V14.01,2013-11-20 12:02:00,
2013-11-20 07:07:00,61.0,49.5,29.97,North,0,0.0,0.0,66,0.00,,---,0.00,VWS V14.01,2013-11-20 12:07:00,
2013-11-20 07:12:00,61.0,49.5,29.97,North,0,0.0,0.0,66,0.00,,---,0.00,VWS V14.01,2013-11-20 12:12:00,
2013-11-20 07:17:00,61.0,49.5,29.97,North,0,0.0,0.0,66,0.00,,---,0.00,VWS V14.01,2013-11-20 12:17:00,
2013-11-20 07:22:00,61.2,49.7,29.97,North,0,0.0,0.0,66,0.00,,---,0.00,VWS V14.01,2013-11-20 12:22:00,
2013-11-20 07:27:00,61.2,49.7,29.97,North,0,0.0,0.0,66,0.00,,---,0.00,VWS V14.01,2013-11-20 12:27:00,
2013-11-20 07:32:00,61.2,49.7,29.97,North,0,0.0,0.0,66,0.00,,---,0.00,VWS V14.01,2013-11-20 12:32:00,
2013-11-20 07:37:00,61.2,49.7,29.97,North,0,0.0,0.0,66,0.00,,---,0.00,VWS V14.01,2013-11-20 12:37:00,
2013-11-20 07:42:00,61.3,50.3,29.97,NNE,12,0.0,0.0,67,0.00,,---,0.00,VWS V14.01,2013-11-20 12:42:00,
2013-11-20 07:47:00,61.3,50.3,29.97,WNW,293,0.0,0.0,67,0.00,,---,0.00,VWS V14.01,2013-11-20 12:47:00,
2013-11-20 07:52:00,61.5,50.5,30.00,NNW,337,0.0,0.0,67,0.00,,---,0.00,VWS V14.01,2013-11-20 12:52:00,
2013-11-20 07:57:00,61.7,50.6,30.00,West,263,0.0,0.0,67,0.00,,---,0.00,VWS V14.01,2013-11-20 12:57:00,
2013-11-20 08:02:00,61.7,50.6,30.00,NNW,332,0.0,0.0,67,0.00,,---,0.00,VWS V14.01,2013-11-20 13:02:00,
2013-11-20 08:07:00,61.9,50.8,30.00,NE,39,0.0,0.0,67,0.00,,---,0.00,VWS V14.01,2013-11-20 13:07:00,
2013-11-20 08:12:00,62.2,51.6,30.00,ENE,70,0.0,0.0,68,0.00,,---,0.00,VWS V14.01,2013-11-20 13:12:00,
2013-11-20 08:17:00,62.4,51.7,30.00,NNE,22,3.1,3.1,68,0.00,,---,0.00,VWS V14.01,2013-11-20 13:17:00,
2013-11-20 08:22:00,62.6,51.5,30.00,East,96,0.0,0.0,67,0.00,,---,0.00,VWS V14.01,2013-11-20 13:22:00,
2013-11-20 08:27:00,62.8,51.7,30.00,NNE,24,0.0,0.0,67,0.00,,---,0.00,VWS V14.01,2013-11-20 13:27:00,
2013-11-20 08:32:00,63.0,52.2,30.00,NNE,18,0.0,0.0,68,0.00,,---,0.00,VWS V14.01,2013-11-20 13:32:00,
2013-11-20 08:37:00,63.3,52.6,30.00,North,4,0.0,0.0,68,0.00,,---,0.00,VWS V14.01,2013-11-20 13:37:00,
2013-11-20 08:42:00,63.5,52.8,30.00,East,99,0.0,0.0,68,0.00,,---,0.00,VWS V14.01,2013-11-20 13:42:00,
2013-11-20 08:47:00,63.9,53.1,30.00,North,0,0.0,0.0,68,0.00,,---,0.00,VWS V14.01,2013-11-20 13:47:00,
2013-11-20 08:52:00,64.0,53.3,30.00,North,353,0.0,2.2,68,0.00,,---,0.00,VWS V14.01,2013-11-20 13:52:00,
2013-11-20 08:57:00,64.2,53.5,30.00,North,0,0.0,0.0,68,0.00,,---,0.00,VWS V14.01,2013-11-20 13:57:00,
2013-11-20 09:02:00,64.4,53.6,30.00,ENE,66,0.0,0.0,68,0.00,,---,0.00,VWS V14.01,2013-11-20 14:02:00,
2013-11-20 09:07:00,64.8,54.0,30.00,NNE,19,0.0,2.2,68,0.00,,---,0.00,VWS V14.01,2013-11-20 14:07:00,
2013-11-20 09:12:00,64.9,54.1,30.00,NE,41,0.0,0.0,68,0.00,,---,0.00,VWS V14.01,2013-11-20 14:12:00,
2013-11-20 09:17:00,65.1,54.3,30.00,NNE,31,2.2,2.7,68,0.00,,---,0.00,VWS V14.01,2013-11-20 14:17:00,
2013-11-20 09:22:00,65.3,54.5,30.00,North,357,0.0,0.0,68,0.00,,---,0.00,VWS V14.01,2013-11-20 14:22:00,
2013-11-20 09:27:00,65.5,54.7,30.00,WNW,300,0.0,0.0,68,0.00,,---,0.00,VWS V14.01,2013-11-20 14:27:00,
2013-11-20 09:32:00,65.7,54.8,30.00,North,0,3.1,3.1,68,0.00,,---,0.00,VWS V14.01,2013-11-20 14:32:00,
2013-11-20 09:37:00,65.8,55.0,30.00,ENE,61,0.0,0.0,68,0.00,,---,0.00,VWS V14.01,2013-11-20 14:37:00,
2013-11-20 09:42:00,66.0,55.2,30.00,East,85,0.0,0.0,68,0.00,,---,0.00,VWS V14.01,2013-11-20 14:42:00,
2013-11-20 09:47:00,66.2,55.3,30.00,North,357,0.0,0.0,68,0.00,,---,0.00,VWS V14.01,2013-11-20 14:47:00,
2013-11-20 09:52:00,66.6,55.7,30.00,NNE,30,0.0,0.0,68,0.00,,---,0.00,VWS V14.01,2013-11-20 14:52:00,
2013-11-20 09:57:00,66.7,55.8,30.00,ENE,66,0.0,0.0,68,0.00,,---,0.00,VWS V14.01,2013-11-20 14:57:00,
2013-11-20 10:02:00,66.9,56.0,30.00,NW,314,0.0,0.0,68,0.00,,---,0.00,VWS V14.01,2013-11-20 15:02:00,
2013-11-20 10:07:00,67.3,56.4,30.03,East,79,0.0,0.0,68,0.00,,---,0.00,VWS V14.01,2013-11-20 15:07:00,
2013-11-20 10:12:00,67.6,56.7,30.03,NNE,22,4.0,4.0,68,0.00,,---,0.00,VWS V14.01,2013-11-20 15:12:00,
2013-11-20 10:17:00,68.0,57.1,30.03,SW,231,0.0,2.7,68,0.00,,---,0.00,VWS V14.01,2013-11-20 15:17:00,
2013-11-20 10:22:00,68.4,57.4,30.03,NNE,16,4.9,4.9,68,0.00,,---,0.00,VWS V14.01,2013-11-20 15:22:00,
2013-11-20 10:27:00,68.9,57.9,30.03,NNE,33,5.8,5.8,68,0.00,,---,0.00,VWS V14.01,2013-11-20 15:27:00,
2013-11-20 10:32:00,69.3,58.3,30.03,South,188,0.0,0.0,68,0.00,,---,0.00,VWS V14.01,2013-11-20 15:32:00,
2013-11-20 10:37:00,69.6,58.6,30.00,North,0,0.0,0.0,68,0.00,,---,0.00,VWS V14.01,2013-11-20 15:37:00,
2013-11-20 10:42:00,69.8,58.4,30.00,NW,313,3.6,3.6,67,0.00,,---,0.00,VWS V14.01,2013-11-20 15:42:00,
2013-11-20 10:47:00,70.2,58.7,30.00,NNE,31,3.1,3.1,67,0.00,,---,0.00,VWS V14.01,2013-11-20 15:47:00,
2013-11-20 10:52:00,70.3,58.9,30.03,NNW,335,2.7,2.7,67,0.00,,---,0.00,VWS V14.01,2013-11-20 15:52:00,
2013-11-20 10:57:00,70.5,58.6,30.03,NE,36,0.0,2.2,66,0.00,,---,0.00,VWS V14.01,2013-11-20 15:57:00,
2013-11-20 11:02:00,70.7,58.8,30.03,NE,50,0.0,0.0,66,0.00,,---,0.00,VWS V14.01,2013-11-20 16:02:00,
2013-11-20 11:07:00,70.7,58.8,30.03,NE,52,2.2,3.6,66,0.00,,---,0.00,VWS V14.01,2013-11-20 16:07:00,
2013-11-20 11:12:00,70.9,59.0,30.03,NE,52,0.0,0.0,66,0.00,,---,0.00,VWS V14.01,2013-11-20 16:12:00,
2013-11-20 11:17:00,70.9,59.0,30.03,NE,52,0.0,0.0,66,0.00,,---,0.00,VWS V14.01,2013-11-20 16:17:00,
2013-11-20 11:22:00,70.7,58.8,30.03,NE,52,0.0,0.0,66,0.00,,---,0.00,VWS V14.01,2013-11-20 16:22:00,
2013-11-20 11:27:00,70.7,58.8,30.03,NE,52,0.0,0.0,66,0.00,,---,0.00,VWS V14.01,2013-11-20 16:27:00,
2013-11-20 11:32:00,70.5,58.6,30.03,NNE,19,0.0,0.0,66,0.00,,---,0.00,VWS V14.01,2013-11-20 16:32:00,
2013-11-20 11:37:00,70.7,59.2,30.03,South,172,0.0,0.0,67,0.00,,---,0.00,VWS V14.01,2013-11-20 16:37:00,
2013-11-20 11:42:00,70.7,59.2,30.03,NNW,335,0.0,0.0,67,0.00,,---,0.00,VWS V14.01,2013-11-20 16:42:00,
2013-11-20 11:47:00,70.5,59.0,30.03,NNE,21,0.0,0.0,67,0.00,,---,0.00,VWS V14.01,2013-11-20 16:47:00,
2013-11-20 11:52:00,70.5,59.0,30.03,NNE,21,0.0,0.0,67,0.00,,---,0.00,VWS V14.01,2013-11-20 16:52:00,
2013-11-20 11:57:00,70.3,58.9,30.03,ESE,107,0.0,0.0,67,0.00,,---,0.00,VWS V14.01,2013-11-20 16:57:00,
2013-11-20 12:02:00,70.3,58.9,30.03,ENE,70,0.0,0.0,67,0.00,,---,0.00,VWS V14.01,2013-11-20 17:02:00,
2013-11-20 12:07:00,70.3,58.9,30.03,ESE,123,0.0,0.0,67,0.00,,---,0.00,VWS V14.01,2013-11-20 17:07:00,
2013-11-20 12:12:00,70.3,58.9,30.03,North,357,0.0,0.0,67,0.00,,---,0.00,VWS V14.01,2013-11-20 17:12:00,
2013-11-20 12:17:00,70.3,59.3,30.03,NNE,22,0.0,0.0,68,0.00,,---,0.00,VWS V14.01,2013-11-20 17:17:00,
2013-11-20 12:22:00,70.3,59.3,30.03,NE,39,0.0,0.0,68,0.00,,---,0.00,VWS V14.01,2013-11-20 17:22:00,
2013-11-20 12:27:00,70.3,59.3,30.03,NE,51,0.0,0.0,68,0.00,,---,0.00,VWS V14.01,2013-11-20 17:27:00,
2013-11-20 12:32:00,70.3,59.3,30.03,NE,51,0.0,0.0,68,0.00,,---,0.00,VWS V14.01,2013-11-20 17:32:00,
2013-11-20 12:37:00,70.3,59.3,30.00,ENE,67,0.0,0.0,68,0.00,,---,0.00,VWS V14.01,2013-11-20 17:37:00,
2013-11-20 12:42:00,70.3,59.3,30.00,ENE,64,0.0,0.0,68,0.00,,---,0.00,VWS V14.01,2013-11-20 17:42:00,
2013-11-20 12:47:00,70.3,59.3,30.00,North,357,0.0,0.0,68,0.00,,---,0.00,VWS V14.01,2013-11-20 17:47:00,
2013-11-20 12:52:00,70.3,59.3,30.00,North,357,0.0,0.0,68,0.00,,---,0.00,VWS V14.01,2013-11-20 17:52:00,
2013-11-20 12:58:00,70.2,59.1,30.00,North,0,0.0,0.0,68,0.00,,---,0.00,VWS V14.01,2013-11-20 17:58:00,
2013-11-20 13:03:00,70.2,59.1,30.00,NNW,342,0.0,0.0,68,0.00,,---,0.00,VWS V14.01,2013-11-20 18:03:00,
2013-11-20 13:08:00,70.2,59.1,30.00,East,86,0.0,0.0,68,0.00,,---,0.00,VWS V14.01,2013-11-20 18:08:00,
2013-11-20 13:13:00,70.2,59.1,30.00,East,95,0.0,0.0,68,0.00,,---,0.00,VWS V14.01,2013-11-20 18:13:00,
2013-11-20 13:18:00,70.2,59.5,30.00,NNE,31,0.0,0.0,69,0.00,,---,0.00,VWS V14.01,2013-11-20 18:18:00,
2013-11-20 13:23:00,70.3,59.7,30.00,ENE,57,0.0,3.6,69,0.00,,---,0.00,VWS V14.01,2013-11-20 18:23:00,
2013-11-20 13:28:00,70.5,59.9,30.00,NNE,14,0.0,0.0,69,0.00,,---,0.00,VWS V14.01,2013-11-20 18:28:00,
2013-11-20 13:33:00,70.7,60.5,30.00,NNW,332,0.0,0.0,70,0.00,,---,0.00,VWS V14.01,2013-11-20 18:33:00,
2013-11-20 13:38:00,70.7,60.5,30.00,NNE,30,0.0,0.0,70,0.00,,---,0.00,VWS V14.01,2013-11-20 18:38:00,
2013-11-20 13:43:00,70.9,60.6,30.00,North,4,0.0,0.0,70,0.00,,---,0.00,VWS V14.01,2013-11-20 18:43:00,
2013-11-20 13:48:00,70.9,60.6,30.00,ENE,68,4.9,4.9,70,0.00,,---,0.00,VWS V14.01,2013-11-20 18:48:00,
2013-11-20 13:53:00,70.9,60.6,30.00,ENE,71,0.0,0.0,70,0.00,,---,0.00,VWS V14.01,2013-11-20 18:53:00,
2013-11-20 13:58:00,70.9,60.6,30.00,NNE,24,0.0,0.0,70,0.00,,---,0.00,VWS V14.01,2013-11-20 18:58:00,
2013-11-20 14:03:00,70.7,60.5,30.00,NNE,14,0.0,3.6,70,0.00,,---,0.00,VWS V14.01,2013-11-20 19:03:00,
2013-11-20 14:08:00,70.7,60.5,30.00,North,9,3.6,3.6,70,0.00,,---,0.00,VWS V14.01,2013-11-20 19:08:00,
2013-11-20 14:13:00,70.9,61.0,30.00,ENE,69,0.0,3.6,71,0.00,,---,0.00,VWS V14.01,2013-11-20 19:13:00,
2013-11-20 14:18:00,71.1,61.2,30.00,ENE,69,0.0,0.0,71,0.00,,---,0.00,VWS V14.01,2013-11-20 19:18:00,
2013-11-20 14:23:00,71.2,61.4,30.00,North,9,4.9,6.7,71,0.00,,---,0.00,VWS V14.01,2013-11-20 19:23:00,
2013-11-20 14:28:00,71.4,61.5,30.00,East,88,0.0,4.0,71,0.00,,---,0.00,VWS V14.01,2013-11-20 19:28:00,
2013-11-20 14:40:00,70.7,60.0,30.00,NNE,13,3.1,3.1,69,0.00,,---,0.00,VWS V14.01,2013-11-20 19:40:00,
2013-11-20 14:45:00,70.2,59.1,30.00,NNE,23,3.1,3.6,68,0.00,,---,0.00,VWS V14.01,2013-11-20 19:45:00,
2013-11-20 14:50:00,69.8,59.2,30.00,North,2,0.0,6.7,69,0.00,,---,0.00,VWS V14.01,2013-11-20 19:50:00,
2013-11-20 14:55:00,69.6,59.0,30.00,West,272,0.0,0.0,69,0.00,,---,0.00,VWS V14.01,2013-11-20 19:55:00,
2013-11-20 15:00:00,69.4,58.8,30.00,North,10,3.1,3.6,69,0.00,,---,0.00,VWS V14.01,2013-11-20 20:00:00,
2013-11-20 15:05:00,69.4,59.2,30.00,NNE,20,2.2,3.1,70,0.00,,---,0.00,VWS V14.01,2013-11-20 20:05:00,
2013-11-20 15:10:00,69.4,59.2,30.00,NNW,348,4.0,4.0,70,0.00,,---,0.00,VWS V14.01,2013-11-20 20:10:00,
2013-11-20 15:15:00,69.4,59.2,30.00,NE,55,0.0,0.0,70,0.00,,---,0.00,VWS V14.01,2013-11-20 20:15:00,
2013-11-20 15:20:00,69.4,59.2,30.00,NE,34,4.0,4.9,70,0.00,,---,0.00,VWS V14.01,2013-11-20 20:20:00,
2013-11-20 15:25:00,69.6,59.4,30.00,North,10,4.9,4.9,70,0.00,,---,0.00,VWS V14.01,2013-11-20 20:25:00,
2013-11-20 15:30:00,69.6,59.4,30.00,NE,42,2.2,4.0,70,0.00,,---,0.00,VWS V14.01,2013-11-20 20:30:00,
2013-11-20 15:35:00,69.8,59.6,30.00,NNE,33,0.0,4.0,70,0.00,,---,0.00,VWS V14.01,2013-11-20 20:35:00,
2013-11-20 15:40:00,69.8,59.2,30.00,NE,42,0.0,0.0,69,0.00,,---,0.00,VWS V14.01,2013-11-20 20:40:00,
2013-11-20 15:46:00,69.6,59.0,30.00,ENE,73,2.7,5.8,69,0.00,,---,0.00,VWS V14.01,2013-11-20 20:46:00,
2013-11-20 15:51:00,69.6,59.0,30.00,SSE,164,0.0,0.0,69,0.00,,---,0.00,VWS V14.01,2013-11-20 20:51:00,
2013-11-20 15:56:00,69.4,58.8,30.00,NNE,29,3.1,3.1,69,0.00,,---,0.00,VWS V14.01,2013-11-20 20:56:00,
2013-11-20 16:01:00,69.4,58.8,30.00,NNW,343,5.4,5.4,69,0.00,,---,0.00,VWS V14.01,2013-11-20 21:01:00,
2013-11-20 16:06:00,69.4,58.8,30.00,NE,37,0.0,3.6,69,0.00,,---,0.00,VWS V14.01,2013-11-20 21:06:00,
2013-11-20 16:11:00,69.3,58.7,30.00,NNE,23,2.7,2.7,69,0.00,,---,0.00,VWS V14.01,2013-11-20 21:11:00,
2013-11-20 16:16:00,69.3,59.1,30.00,North,3,0.0,3.1,70,0.00,,---,0.00,VWS V14.01,2013-11-20 21:16:00,
2013-11-20 16:21:00,69.3,58.7,30.00,NE,39,0.0,0.0,69,0.00,,---,0.00,VWS V14.01,2013-11-20 21:21:00,
2013-11-20 16:26:00,69.3,58.7,30.00,ENE,75,0.0,0.0,69,0.00,,---,0.00,VWS V14.01,2013-11-20 21:26:00,
2013-11-20 16:31:00,69.1,58.5,30.00,East,86,0.0,3.6,69,0.00,,---,0.00,VWS V14.01,2013-11-20 21:31:00,
2013-11-20 16:36:00,69.1,58.5,30.03,NNE,30,0.0,3.1,69,0.00,,---,0.00,VWS V14.01,2013-11-20 21:36:00,
2013-11-20 16:41:00,68.9,58.3,30.03,NE,56,3.1,3.1,69,0.00,,---,0.00,VWS V14.01,2013-11-20 21:41:00,
2013-11-20 16:46:00,68.9,58.3,30.03,North,5,3.6,4.9,69,0.00,,---,0.00,VWS V14.01,2013-11-20 21:46:00,
2013-11-20 16:51:00,68.7,58.5,30.03,NNW,346,0.0,0.0,70,0.00,,---,0.00,VWS V14.01,2013-11-20 21:51:00,
2013-11-20 16:56:00,68.7,58.5,30.03,ESE,113,0.0,0.0,70,0.00,,---,0.00,VWS V14.01,2013-11-20 21:56:00,
2013-11-20 17:01:00,68.5,58.4,30.03,East,97,2.2,2.2,70,0.00,,---,0.00,VWS V14.01,2013-11-20 22:01:00,
2013-11-20 17:06:00,68.4,58.2,30.03,NNE,18,3.1,5.4,70,0.00,,---,0.00,VWS V14.01,2013-11-20 22:06:00,
2013-11-20 17:11:00,68.0,57.5,30.03,NE,35,0.0,0.0,69,0.00,,---,0.00,VWS V14.01,2013-11-20 22:11:00,
2013-11-20 17:16:00,67.8,57.7,30.03,NW,308,0.0,0.0,70,0.00,,---,0.00,VWS V14.01,2013-11-20 22:16:00,
2013-11-20 17:21:00,67.6,57.5,30.03,East,79,3.1,3.1,70,0.00,,---,0.00,VWS V14.01,2013-11-20 22:21:00,
2013-11-20 17:26:00,67.5,57.3,30.03,East,87,0.0,0.0,70,0.00,,---,0.00,VWS V14.01,2013-11-20 22:26:00,
2013-11-20 17:31:00,67.3,57.2,30.03,South,170,0.0,0.0,70,0.00,,---,0.00,VWS V14.01,2013-11-20 22:31:00,
2013-11-20 17:36:00,67.1,57.0,30.03,North,4,3.1,3.6,70,0.00,,---,0.00,VWS V14.01,2013-11-20 22:36:00,
2013-11-20 17:41:00,66.9,56.8,30.03,ENE,58,4.0,4.0,70,0.00,,---,0.00,VWS V14.01,2013-11-20 22:41:00,
2013-11-20 17:46:00,66.9,56.8,30.03,North,10,3.6,3.6,70,0.00,,---,0.00,VWS V14.01,2013-11-20 22:46:00,
2013-11-20 17:51:00,66.7,56.7,30.06,NE,38,0.0,2.7,70,0.00,,---,0.00,VWS V14.01,2013-11-20 22:51:00,
2013-11-20 17:56:00,66.6,56.5,30.06,North,11,0.0,3.6,70,0.00,,---,0.00,VWS V14.01,2013-11-20 22:56:00,
2013-11-20 18:01:00,66.4,56.3,30.06,NE,54,3.6,4.5,70,0.00,,---,0.00,VWS V14.01,2013-11-20 23:01:00,
2013-11-20 18:06:00,66.2,56.1,30.06,NNE,14,0.0,0.0,70,0.00,,---,0.00,VWS V14.01,2013-11-20 23:06:00,
2013-11-20 18:11:00,66.0,56.4,30.06,NNE,28,0.0,0.0,71,0.00,,---,0.00,VWS V14.01,2013-11-20 23:11:00,
2013-11-20 18:16:00,65.8,56.2,30.06,ESE,116,0.0,0.0,71,0.00,,---,0.00,VWS V14.01,2013-11-20 23:16:00,
2013-11-20 18:21:00,65.8,56.2,30.06,North,357,0.0,0.0,71,0.00,,---,0.00,VWS V14.01,2013-11-20 23:21:00,
2013-11-20 18:26:00,65.7,56.0,30.06,WSW,245,0.0,0.0,71,0.00,,---,0.00,VWS V14.01,2013-11-20 23:26:00,
2013-11-20 18:31:00,65.5,55.8,30.06,NNW,329,3.6,5.8,71,0.00,,---,0.00,VWS V14.01,2013-11-20 23:31:00,
2013-11-20 18:36:00,65.5,56.2,30.06,NE,41,3.1,4.9,72,0.00,,---,0.00,VWS V14.01,2013-11-20 23:36:00,
2013-11-20 18:41:00,65.3,56.0,30.06,East,93,0.0,2.7,72,0.00,,---,0.00,VWS V14.01,2013-11-20 23:41:00,
2013-11-20 18:46:00,65.1,55.9,30.06,North,357,0.0,0.0,72,0.00,,---,0.00,VWS V14.01,2013-11-20 23:46:00,
2013-11-20 18:51:00,65.1,55.9,30.06,NE,51,4.0,4.9,72,0.00,,---,0.00,VWS V14.01,2013-11-20 23:51:00,
2013-11-20 18:56:00,64.9,55.7,30.06,East,89,5.4,6.3,72,0.00,,---,0.00,VWS V14.01,2013-11-20 23:56:00,
2013-11-20 19:01:00,64.9,55.7,30.06,SSW,212,0.0,0.0,72,0.00,,---,0.00,VWS V14.01,2013-11-21 00:01:00,
2013-11-20 19:06:00,64.8,55.5,30.09,ENE,68,2.2,2.7,72,0.00,,---,0.00,VWS V14.01,2013-11-21 00:06:00,
2013-11-20 19:11:00,64.8,55.5,30.09,North,7,3.1,3.1,72,0.00,,---,0.00,VWS V14.01,2013-11-21 00:11:00,
2013-11-20 19:16:00,64.8,55.5,30.09,WSW,243,0.0,0.0,72,0.00,,---,0.00,VWS V14.01,2013-11-21 00:16:00,
2013-11-20 19:21:00,64.6,55.4,30.09,NE,41,0.0,2.7,72,0.00,,---,0.00,VWS V14.01,2013-11-21 00:21:00,
2013-11-20 19:26:00,64.6,55.4,30.09,NNE,18,0.0,0.0,72,0.00,,---,0.00,VWS V14.01,2013-11-21 00:26:00,
2013-11-20 19:31:00,64.6,55.7,30.09,North,0,3.1,3.1,73,0.00,,---,0.00,VWS V14.01,2013-11-21 00:31:00,
2013-11-20 19:36:00,64.4,55.6,30.09,ENE,72,0.0,0.0,73,0.00,,---,0.00,VWS V14.01,2013-11-21 00:36:00,
2013-11-20 19:41:00,64.4,55.6,30.09,North,357,0.0,3.6,73,0.00,,---,0.00,VWS V14.01,2013-11-21 00:41:00,
2013-11-20 19:46:00,64.4,55.6,30.09,ENE,74,0.0,0.0,73,0.00,,---,0.00,VWS V14.01,2013-11-21 00:46:00,
2013-11-20 19:51:00,64.4,55.6,30.09,NE,44,2.7,4.9,73,0.00,,---,0.00,VWS V14.01,2013-11-21 00:51:00,
2013-11-20 19:56:00,64.4,55.6,30.09,NE,50,3.1,3.6,73,0.00,,---,0.00,VWS V14.01,2013-11-21 00:56:00,
2013-11-20 20:01:00,64.4,55.6,30.09,North,353,3.6,3.6,73,0.00,,---,0.00,VWS V14.01,2013-11-21 01:01:00,
2013-11-20 20:06:00,64.4,55.6,30.09,West,278,0.0,0.0,73,0.00,,---,0.00,VWS V14.01,2013-11-21 01:06:00,
2013-11-20 20:11:00,64.4,55.9,30.09,NNW,342,2.7,4.0,74,0.00,,---,0.00,VWS V14.01,2013-11-21 01:11:00,
2013-11-20 20:16:00,64.2,55.8,30.09,North,5,5.4,5.4,74,0.00,,---,0.00,VWS V14.01,2013-11-21 01:16:00,
2013-11-20 20:21:00,64.4,55.9,30.09,West,276,0.0,2.2,74,0.00,,---,0.00,VWS V14.01,2013-11-21 01:21:00,
2013-11-20 20:26:00,64.2,55.8,30.09,NE,37,3.1,3.1,74,0.00,,---,0.00,VWS V14.01,2013-11-21 01:26:00,
2013-11-20 20:31:00,64.2,56.1,30.09,NE,47,3.6,4.0,75,0.00,,---,0.00,VWS V14.01,2013-11-21 01:31:00,
2013-11-20 20:36:00,64.2,56.1,30.09,ENE,61,0.0,2.7,75,0.00,,---,0.00,VWS V14.01,2013-11-21 01:36:00,
2013-11-20 20:41:00,64.2,56.1,30.09,NW,306,3.1,3.1,75,0.00,,---,0.00,VWS V14.01,2013-11-21 01:41:00,
2013-11-20 20:46:00,64.2,55.8,30.09,NW,324,0.0,0.0,74,0.00,,---,0.00,VWS V14.01,2013-11-21 01:46:00,
2013-11-20 20:51:00,64.2,56.1,30.09,WNW,291,2.2,4.0,75,0.00,,---,0.00,VWS V14.01,2013-11-21 01:51:00,
2013-11-20 20:56:00,64.2,56.1,30.09,NNE,30,0.0,0.0,75,0.00,,---,0.00,VWS V14.01,2013-11-21 01:56:00,
2013-11-20 21:01:00,64.2,56.1,30.09,ENE,69,0.0,0.0,75,0.00,,---,0.00,VWS V14.01,2013-11-21 02:01:00,
2013-11-20 21:06:00,64.2,56.1,30.09,SE,124,0.0,0.0,75,0.00,,---,0.00,VWS V14.01,2013-11-21 02:06:00,
2013-11-20 21:11:00,64.2,56.1,30.09,North,353,0.0,3.6,75,0.00,,---,0.00,VWS V14.01,2013-11-21 02:11:00,
2013-11-20 21:16:00,64.2,56.1,30.09,NNE,28,0.0,0.0,75,0.00,,---,0.00,VWS V14.01,2013-11-21 02:16:00,
2013-11-20 21:21:00,64.2,56.1,30.09,North,0,0.0,5.4,75,0.00,,---,0.00,VWS V14.01,2013-11-21 02:21:00,
2013-11-20 21:26:00,64.2,56.1,30.09,South,184,0.0,0.0,75,0.00,,---,0.00,VWS V14.01,2013-11-21 02:26:00,
2013-11-20 21:31:00,64.4,56.3,30.09,East,97,5.8,5.8,75,0.00,,---,0.00,VWS V14.01,2013-11-21 02:31:00,
2013-11-20 21:37:00,64.4,56.3,30.09,NE,37,0.0,3.1,75,0.00,,---,0.00,VWS V14.01,2013-11-21 02:37:00,
2013-11-20 21:42:00,64.4,56.3,30.09,NNE,18,0.0,4.5,75,0.00,,---,0.00,VWS V14.01,2013-11-21 02:42:00,
2013-11-20 21:47:00,64.4,56.3,30.09,NE,39,0.0,0.0,75,0.00,,---,0.00,VWS V14.01,2013-11-21 02:47:00,
2013-11-20 21:52:00,64.4,56.7,30.09,East,101,0.0,0.0,76,0.00,,---,0.00,VWS V14.01,2013-11-21 02:52:00,
2013-11-20 21:57:00,64.6,56.8,30.09,NNE,20,5.4,5.8,76,0.00,,---,0.00,VWS V14.01,2013-11-21 02:57:00,
2013-11-20 22:02:00,64.6,56.8,30.09,NNW,348,2.7,4.9,76,0.00,,---,0.00,VWS V14.01,2013-11-21 03:02:00,
2013-11-20 22:07:00,64.6,56.8,30.09,NE,51,0.0,0.0,76,0.00,,---,0.00,VWS V14.01,2013-11-21 03:07:00,
2013-11-20 22:12:00,64.8,57.0,30.09,NNE,25,0.0,0.0,76,0.00,,---,0.00,VWS V14.01,2013-11-21 03:12:00,
2013-11-20 22:17:00,64.8,57.0,30.09,NNW,348,0.0,0.0,76,0.00,,---,0.00,VWS V14.01,2013-11-21 03:17:00,
2013-11-20 22:22:00,64.8,57.0,30.09,North,6,0.0,0.0,76,0.00,,---,0.00,VWS V14.01,2013-11-21 03:22:00,
2013-11-20 22:27:00,64.9,57.6,30.09,North,0,4.9,4.9,77,0.00,,---,0.00,VWS V14.01,2013-11-21 03:27:00,
2013-11-20 22:32:00,65.1,57.7,30.09,NNW,334,0.0,0.0,77,0.00,,---,0.00,VWS V14.01,2013-11-21 03:32:00,
2013-11-20 22:37:00,65.1,57.7,30.09,ENE,60,0.0,3.6,77,0.00,,---,0.00,VWS V14.01,2013-11-21 03:37:00,
2013-11-20 22:42:00,65.1,57.7,30.09,SE,146,0.0,0.0,77,0.00,,---,0.00,VWS V14.01,2013-11-21 03:42:00,
2013-11-20 22:47:00,65.1,57.7,30.09,NNE,27,0.0,0.0,77,0.00,,---,0.00,VWS V14.01,2013-11-21 03:47:00,
2013-11-20 22:52:00,65.3,57.9,30.09,North,10,0.0,0.0,77,0.00,,---,0.00,VWS V14.01,2013-11-21 03:52:00,
2013-11-20 22:57:00,65.3,57.9,30.09,NNE,30,0.0,0.0,77,0.00,,---,0.00,VWS V14.01,2013-11-21 03:57:00,
2013-11-20 23:02:00,65.3,57.9,30.09,NE,36,0.0,0.0,77,0.00,,---,0.00,VWS V14.01,2013-11-21 04:02:00,
2013-11-20 23:07:00,65.3,57.9,30.09,NNW,339,0.0,0.0,77,0.00,,---,0.00,VWS V14.01,2013-11-21 04:07:00,
2013-11-20 23:12:00,65.3,57.9,30.09,NNE,25,0.0,0.0,77,0.00,,---,0.00,VWS V14.01,2013-11-21 04:12:00,
2013-11-20 23:17:00,65.3,58.3,30.09,ESE,108,0.0,0.0,78,0.00,,---,0.00,VWS V14.01,2013-11-21 04:17:00,
2013-11-20 23:22:00,65.5,58.1,30.09,NE,37,2.7,3.6,77,0.00,,---,0.00,VWS V14.01,2013-11-21 04:22:00,
2013-11-20 23:27:00,65.5,58.5,30.09,NNE,14,0.0,0.0,78,0.00,,---,0.00,VWS V14.01,2013-11-21 04:27:00,
2013-11-20 23:32:00,65.5,58.5,30.09,NNE,29,0.0,2.2,78,0.00,,---,0.00,VWS V14.01,2013-11-21 04:32:00,
2013-11-20 23:37:00,65.5,58.5,30.09,NNE,24,0.0,0.0,78,0.00,,---,0.00,VWS V14.01,2013-11-21 04:37:00,
2013-11-20 23:42:00,65.5,58.5,30.09,SSW,195,0.0,0.0,78,0.00,,---,0.00,VWS V14.01,2013-11-21 04:42:00,
2013-11-20 23:47:00,65.7,58.6,30.09,North,9,0.0,4.0,78,0.00,,---,0.00,VWS V14.01,2013-11-21 04:47:00,
2013-11-20 23:52:00,65.7,58.6,30.09,North,353,0.0,0.0,78,0.00,,---,0.00,VWS V14.01,2013-11-21 04:52:00,
2013-11-20 23:57:00,65.7,58.6,30.09,North,353,0.0,0.0,78,0.00,,---,0.00,VWS V14.01,2013-11-21 04:57:00,